Location: Lafig�re
(44.4503°N, 4.0357°E)
Time: 16:27:30
(UTC+00:00)

Okean 1 Rocket - Pass Details

Date: 24 September 2020
Orbit: 605 x 635 km, 82.5° (Epoch: 25 October)

Event Time Altitude Azimuth Distance (km) Brightness Sun altitude
Rises 19:53:13 0° 206° (SSW) 2,918 6.5 -24.5°
Reaches altitude 10° 19:55:34 10° 214° (SW) 2,016 5.8 -24.8°
Maximum altitude 19:59:46 39° 284° (WNW) 957 4.4 -25.5°
Drops below altitude 10° 20:04:00 10° 354° (N) 2,031 6.1 -26.2°
Sets 20:06:23 0° 2° (N) 2,942 6.9 -26.6°
